FALCON 9 DEB (52505 NORAD) Tracking and Keplerian Element Data

This shows tracking and keplerian element data for the satellite.

Feedback or suggestion? Click here.




ElementValue
Catalog52505
NameFALCON 9 DEB
Epoch Orbit649
Epoch Day167.00305554
Epoch Year2022
RAAN58.7536
Inclination53.1995
Eccentricity0.0002123
Argument of Perigee322.7133
Mean Anonmoly37.3757
Mean Motion16.15116993
Decay Rate0.01188563
L11 52505U 22049BG 22167.00305554 .01188563 99657-3 87960-3 0 9998
L22 52505 53.1995 58.7536 0002123 322.7133 37.3757 16.15116993 6497

Live tracking and technical data element details for FALCON 9 DEB (NORAD 52505). FALCON 9 DEB can be tracked NOW for your location showing map with azimuth and elevation plus other details from your city location.

Track the satellite on the map from your city or location and see movement details for azimuth, elevation, latitude, longitude, range, height, and movement on the map or in text.







IsCatalogInMostPopularTable: catalog: 52505, numindb: 4
Update: records affected: 1



GetName: 52505 FALCON 9 DEB

Hit Count: updated at: Sat, 13 Aug 2022 23:45:52 GMT